Вернуться в каталог

STARLINK-32648

АктивенСвязьVLEO
NORAD 62301·PAYLOAD·🇺🇸 United States

Запущен Dec 13, 2024 с Vandenberg Space Force Base

Loading…

Ближайшие Пролёты (ближайшие 24 часа)

TLE

СвежийSource: CelesTrak SupGP

Эпоха: Sep 14, 2026, 22:35 UTC

1 62301C 24239A   26257.94145833 -.00001321  00000+0 -39040-4 0  2576
2 62301  53.1592  19.3364 0001229  83.2710  72.6264 15.34374823    18

Отслеживайте STARLINK-32648 в реальном времени с AllMySat

Download on the App Store